Hastings, NE

4:15 PM CDT on April 28, 2017 (GMT -0500)
Hastings Municipal

Weather History for KHSI - February, 2013

Change the Weather History Date:

Thursday, February 28, 2013

  Actual Average Record
Temperature  
Mean Temperature 30 °F 34 °F  
Max Temperature 33 °F 44 °F 80 °F (2006)
Min Temperature 27 °F 23 °F -12 °F (1962)
Degree Days  
Heating Degree Days 35 31  
Month to date heating degree days 977 982  
Since 1 July heating degree days 4627 4630  
Cooling Degree Days 0 0  
Month to date cooling degree days 0 0  
Year to date cooling degree days 0 0  
Moisture  
Dew Point 24 °F    
Average Humidity 79    
Maximum Humidity 85    
Minimum Humidity 72    
Precipitation  
Precipitation 0.00 in 0.02 in 1.06 in (1951)
Month to date precipitation 0.90 0.49  
Year to date precipitation 1.22 0.90  
Snow  
Snow 0.00 in 0.20 in 7.00 in (1918)
Month to date snowfall 10.5 6.5  
Since 1 July snowfall 23.8 22.4  
Snow Depth 3.00 in    
Sea Level Pressure  
Sea Level Pressure 30.23 in    
Wind  
Wind Speed 15 mph (North)    
Max Wind Speed 25 mph    
Max Gust Speed 29 mph    
Visibility 10 miles    
Events      
T = Trace of Precipitation, MM = Missing Value Source: NWS Daily Summary

Daily Weather History Graph

Daily Weather History Graph

Search for Another Location

Airport or City:

Trip Planner

Search our weather history database for the weather conditions in past years. The results will help you decide how hot, cold, wet, or windy it might be!

Date:

Astronomy

Feb. 28, 2013 Rise Set
Actual Time 7:08 AM CST 6:24 PM CST
Civil Twilight 6:41 AM CST 6:51 PM CST
Nautical Twilight 6:09 AM CST 7:23 PM CST
Astronomical Twilight 5:37 AM CST 7:55 PM CST
Moon 9:54 PM CST 8:17 AM CST
Length of Visible Light 12h 10m
Length of Day
11h 15m
Waning Gibbous, 90% of the Moon is Illuminated
Feb 28
Waning Gibbous
Mar 4
Last Quarter
Mar 11
New
Mar 19
First Quarter
Mar 27
Full

Hourly Weather History & Observations

Time (CST) Temp. Windchill Dew Point Humidity Pressure Visibility Wind Dir Wind Speed Gust Speed Precip Events Conditions
12:53 AM 30.2 °F 19.3 °F 24.8 °F 80% 30.13 in 10.0 mi North 15.0 mph - N/A   Overcast
1:53 AM 30.0 °F 17.2 °F 25.0 °F 82% 30.20 in 10.0 mi NNW 20.7 mph - N/A   Overcast
2:53 AM 28.9 °F 17.3 °F 24.1 °F 82% 30.20 in 10.0 mi North 16.1 mph - N/A   Overcast
3:53 AM 28.9 °F 15.8 °F 24.1 °F 82% 30.21 in 9.0 mi NNW 20.7 mph 26.5 mph N/A   Overcast
4:53 AM 28.9 °F 16.5 °F 24.1 °F 82% 30.22 in 9.0 mi NNW 18.4 mph - N/A   Overcast
5:30 AM 28.4 °F 16.6 °F 24.8 °F 86% 30.16 in 8.0 mi NNW 16.1 mph - N/A   Overcast
5:53 AM 28.4 °F 17.0 °F 23.0 °F 80% 30.16 in 9.0 mi NNW 15.0 mph - N/A   Overcast
6:53 AM 28.0 °F 14.9 °F 23.0 °F 81% 30.24 in 9.0 mi NNW 19.6 mph - N/A   Overcast
7:05 AM 28.4 °F 15.1 °F 21.2 °F 74% 30.18 in 10.0 mi NNW 20.7 mph - N/A   Overcast
7:53 AM 28.4 °F 16.2 °F 23.0 °F 80% 30.18 in 8.0 mi NNW 17.3 mph 23.0 mph N/A   Overcast
8:53 AM 28.0 °F 15.7 °F 23.0 °F 81% 30.25 in 9.0 mi NNW 17.3 mph - N/A   Overcast
9:53 AM 28.9 °F 15.8 °F 23.0 °F 78% 30.27 in 9.0 mi North 20.7 mph - N/A   Overcast
10:53 AM 30.0 °F 17.2 °F 24.1 °F 79% 30.28 in 9.0 mi North 20.7 mph - N/A   Overcast
11:13 AM 30.2 °F 18.1 °F 24.8 °F 80% 30.22 in 9.0 mi North 18.4 mph - N/A   Overcast
11:53 AM 30.9 °F 19.4 °F 24.1 °F 76% 30.27 in 10.0 mi NNW 17.3 mph - N/A   Overcast
12:53 PM 30.9 °F 19.4 °F 24.1 °F 76% 30.27 in 10.0 mi NNW 17.3 mph - N/A   Overcast
1:00 PM 30.2 °F 18.1 °F 24.8 °F 80% 30.21 in 10.0 mi North 18.4 mph - N/A   Overcast
1:53 PM 32.0 °F 21.6 °F 25.0 °F 75% 30.25 in 10.0 mi NNW 15.0 mph - N/A   Overcast
2:53 PM 32.0 °F 22.1 °F 25.0 °F 75% 30.25 in 10.0 mi NNW 13.8 mph - N/A   Overcast
3:53 PM 30.9 °F 20.7 °F 24.1 °F 76% 30.25 in 10.0 mi North 13.8 mph - N/A   Overcast
4:53 PM 30.9 °F 21.7 °F 24.1 °F 76% 30.25 in 10.0 mi NNW 11.5 mph - N/A   Overcast
5:53 PM 30.9 °F 21.7 °F 24.1 °F 76% 30.26 in 10.0 mi North 11.5 mph - N/A   Overcast
6:53 PM 30.0 °F 19.5 °F 24.1 °F 79% 30.28 in 10.0 mi North 13.8 mph - N/A   Overcast
7:53 PM 28.9 °F 21.1 °F 24.1 °F 82% 30.27 in 10.0 mi North 8.1 mph - N/A   Overcast
8:53 PM 27.0 °F 17.3 °F 21.9 °F 81% 30.28 in 10.0 mi North 10.4 mph - N/A   Mostly Cloudy
9:53 PM 28.0 °F 18.6 °F 21.9 °F 78% 30.28 in 10.0 mi NNE 10.4 mph - N/A   Overcast
10:53 PM 27.0 °F 17.3 °F 21.9 °F 81% 30.27 in 10.0 mi NNE 10.4 mph - N/A   Overcast
11:53 PM 27.0 °F 17.3 °F 21.9 °F 81% 30.27 in 10.0 mi North 10.4 mph - N/A   Overcast